OKEAN-O

Last updated on Sun Jun 21 2026 00:02:15 GMT+0000 (Coordinated Universal Time)

1 25860U 99039A 26171.11862727 .00000442 00000+0 64557-4 0 9992 2 25860 97.9314 229.8828 0001533 71.4936 288.6442 14.80470388449540
UTC large
Height (km)
Speed (km/s)
/
Latitude / Longitude
Inclination (degrees)
Orbital Period (minutes)
Azimuth
Elevation
Range (km)
Doppler Factor

Next 0 passes for location: London (51.5072 / 0.1276)

No passes found over London.
OKEAN-O